Tracking 22459 objects as of 3-Mar-2021
HD Live streaming from Space Station
objects crossing your sky now

COSMOS 252 DEB *

Track COSMOS 252 DEB * now!
10-day predictions


NORAD ID: 3901
Int'l Code: 1968-097BN
Perigee: 661.3 km
Apogee: 1,941.2 km
Inclination: 61.3 °
Period: 111.5 minutes
Semi major axis: 7672 km
RCS: 0.0068 m2 (small)
Launch date: November 1, 1968
Source: Commonwealth of Independent States (former USSR) (CIS)
Launch site: TYURATAM MISSILE AND SPACE COMPLEX (TTMTR)

Note: This is SATELLITE DEBRIS
aabbcc
Your satellite tracking list
Your tracking list is empty




NASA's NSSDC Master Catalog

Two Line Element Set (TLE):
1 03901U 68097BN  21062.51391062 -.00000124  00000-0 -22156-4 0  9990
2 03901  61.2763  50.3158 0834131 175.8058 185.0521 12.91875499427657
Source of the keplerian elements: AFSPC